Wind_Gust
8 8 6 11 9 8 6 6 8 8 8 8 6 5 15 4 10 12 14 14 12 6 5 10 9 9 8 15 23 16 11 21 12 24 20 15 19 22 21 24 24 22 22 21 20 20 20 21 23 25 26 26 26 26 27 27 26 25 25 24 24 23 22 23 22 22 22 21 21 21 21 21 20 20 20 19 18 18 18 18 18 18 18 18 18 18 18 18 17 17 18 19 19 18 18 17 16
4 7 9 9 9 7 7 7 12 4 6 5 12 3 11 9 6 13 14 12 8 12 3 5 10 14 13 14 12 11 14 14 7 11 11 16 23 24 23 25 26 26 23 21 19 18 17 20 22 23 25 26 26 26 27 26 25 25 25 25 23 22 22 21 22 22 21 21 20 19 20 20 20 19 19 18 18 18 17 17 17 17 17 17 17 18 18 18 17 18 18 18 18 17 17 17 17
5 9 10 6 6 6 7 5 13 7 9 13 13 13 6 8 11 10 16 12 9 9 4 8 5 10 12 11 16 12 8 10 16 13 19 19 32 15 21 24 23 23 23 21 20 19 17 19 22 23 25 26 26 27 26 26 26 25 25 24 23 23 22 21 21 21 20 19 19 19 19 19 19 19 18 18 17 17 17 17 17 17 17 17 17 17 17 17 17 17 18 18 17 17 17 17 16
6 3 11 6 8 5 6 8 6 15 13 13 11 9 10 6 10 10 16 12 6 6 6 11 14 8 7 21 11 9 11 10 9 16 30 25 23 24 22 24 23 24 21 20 20 19 17 22 23 23 25 26 27 27 27 27 26 25 25 24 23 23 21 20 21 21 19 19 18 18 18 18 19 18 18 17 17 16 16 16 16 16 17 16 17 17 16 17 16 17 17 17 16 16 17 17 16
4 4 5 7 10 9 11 13 11 12 15 15 17 12 8 11 11 18 14 12 8 16 12 12 14 9 5 8 8 14 14 11 10 9 23 16 23 26 25 24 23 24 23 20 21 18 18 23 22 23 25 26 27 27 27 27 26 26 25 24 23 23 22 21 21 20 20 19 18 17 17 18 18 17 18 18 17 16 16 15 15 16 16 16 16 16 15 16 16 16 16 16 16 16 16 16 15
6 5 4 6 13 8 10 9 10 11 10 15 7 14 15 12 10 11 9 7 7 10 19 13 22 15 14 8 8 9 6 10 11 9 20 16 26 29 28 25 23 23 21 19 19 16 19 26 24 23 24 26 26 27 27 26 26 25 24 23 23 23 22 21 20 20 20 19 18 17 17 17 17 17 17 17 17 17 16 15 14 14 14 16 16 15 15 15 15 16 16 16 15 15 15 15 13
11 8 7 5 13 7 12 12 13 10 13 11 11 17 14 10 9 9 10 7 6 9 7 14 18 14 14 8 5 8 8 8 8 18 15 25 28 30 29 31 24 22 22 19 18 17 22 25 23 23 24 25 27 27 27 26 26 25 24 24 23 23 22 21 21 21 20 19 18 17 17 16 17 17 17 16 17 16 16 15 14 13 13 14 14 14 14 14 16 16 16 15 14 15 15 14 13
3 10 12 12 15 11 11 10 15 14 13 15 8 15 15 9 11 6 5 9 10 7 6 11 8 19 6 7 8 14 18 11 10 20 26 27 30 30 29 28 27 23 22 20 17 16 24 24 24 23 24 25 27 27 26 26 25 24 24 23 23 22 22 21 21 20 19 19 18 17 17 16 16 16 16 16 16 15 15 15 14 13 13 13 14 13 13 14 15 15 16 14 15 16 15 15 14
5 8 6 10 13 16 10 16 18 9 9 8 10 17 19 12 11 13 7 6 6 4 15 18 20 23 11 8 10 10 13 14 18 24 26 30 24 25 26 25 28 25 24 22 19 17 18 23 23 24 24 26 27 27 25 26 24 23 24 23 22 21 21 21 21 21 19 18 17 16 16 16 16 16 16 16 16 15 15 15 14 13 14 14 13 13 12 13 14 15 15 13 16 17 16 15 15
9 11 12 20 11 21 17 18 13 16 19 12 11 16 28 12 12 12 4 7 14 7 9 9 10 16 12 11 10 11 12 15 20 20 24 30 23 21 19 20 22 26 22 22 19 17 17 23 23 23 23 24 24 24 23 23 23 23 23 23 21 20 20 20 20 20 19 18 17 16 16 16 15 15 15 15 16 15 14 14 14 13 14 14 12 12 12 12 14 15 15 14 16 17 16 16 16
18 11 8 16 12 20 26 23 20 11 13 11 11 20 23 8 13 19 7 9 11 15 10 10 13 20 10 6 8 8 8 17 20 22 22 29 26 23 21 18 19 23 23 21 17 17 19 19 25 22 22 22 22 21 21 21 21 21 21 20 19 18 19 20 20 19 19 18 17 16 15 15 15 15 15 15 15 15 14 13 14 13 13 13 12 11 11 11 13 15 15 13 16 16 16 16 16
16 15 15 18 22 25 20 23 18 17 10 8 19 17 9 10 9 18 9 13 12 13 18 13 21 21 12 9 8 8 9 22 23 19 19 18 25 20 23 18 18 19 25 22 19 17 18 19 19 23 24 22 21 21 20 20 21 20 20 20 19 18 19 19 20 20 19 18 17 16 15 15 16 15 14 14 14 14 13 14 13 12 12 12 11 10 10 10 13 15 15 13 15 16 16 17 16
15 9 14 18 23 13 13 14 19 10 16 19 17 24 11 12 13 15 11 10 15 12 11 12 20 13 12 12 10 7 10 13 26 24 20 19 20 20 17 19 18 18 21 23 20 18 18 17 19 20 20 25 22 23 21 21 20 20 20 19 18 19 20 20 20 20 18 18 17 16 16 15 16 16 15 15 14 13 13 13 13 11 11 11 10 10 9 9 13 15 15 13 15 16 16 16 16
18 16 17 25 6 12 19 19 7 18 23 12 11 12 16 16 12 17 11 10 13 20 16 20 21 20 15 19 12 13 15 14 20 21 21 18 17 20 18 18 18 18 18 20 22 20 18 16 17 17 21 19 18 22 23 23 22 21 20 19 20 20 20 20 20 19 18 18 17 16 16 16 16 16 16 15 15 14 13 13 12 11 10 10 9 9 9 9 12 14 14 13 14 15 16 16 16
18 9 15 14 14 10 14 31 19 18 25 13 13 13 11 19 9 13 16 19 20 12 10 15 23 28 29 23 15 19 20 18 22 22 20 19 19 19 18 17 16 16 16 15 17 20 19 16 16 16 15 15 16 15 16 22 24 22 22 21 22 21 22 21 21 19 19 19 18 17 17 17 16 17 17 16 15 15 15 13 11 10 10 10 10 9 8 9 11 13 14 12 12 14 15 16 16
14 12 16 17 26 18 21 23 8 13 27 14 11 12 14 21 18 18 22 21 14 17 23 26 17 19 27 31 33 36 35 31 30 26 26 23 19 18 18 17 15 16 15 16 16 15 18 17 15 15 15 15 13 13 14 15 21 23 22 23 23 23 23 22 22 21 20 19 18 18 17 16 15 15 18 15 15 16 15 11 11 10 9 10 10 10 7 9 11 13 13 12 13 13 15 16 17
6 13 17 20 25 21 18 23 16 33 8 13 8 15 23 24 20 25 24 14 16 23 32 32 37 10 32 30 32 28 34 37 34 32 28 24 24 21 17 16 16 14 17 16 15 16 15 16 16 16 15 14 14 13 13 14 18 23 21 23 24 24 23 22 21 21 19 18 17 16 16 11 8 9 13 9 16 12 14 14 12 11 10 10 10 10 7 8 10 11 12 12 13 13 12 16 17
8 23 25 25 19 20 12 20 20 9 16 14 11 11 14 21 19 27 16 15 20 24 27 14 7 14 19 12 25 28 30 35 41 41 31 26 28 23 22 18 21 22 19 17 15 14 17 15 16 18 18 16 14 15 13 13 16 18 13 16 17 20 20 19 18 14 14 10 17 16 10 9 8 7 10 11 10 12 12 14 12 12 10 9 9 10 7 6 8 10 11 11 12 12 12 11 13
19 15 20 31 21 16 9 10 10 17 18 11 16 19 22 20 22 20 17 12 18 23 17 9 14 13 12 23 25 29 27 25 33 40 41 35 32 31 27 21 20 18 18 17 17 17 15 16 16 19 18 17 17 14 14 12 13 12 12 13 14 14 16 16 10 12 8 9 9 9 9 8 8 7 8 10 10 13 12 14 14 13 12 10 8 9 8 6 8 9 11 11 11 12 10 9 12
15 13 22 27 8 8 11 8 10 11 10 20 21 22 25 25 28 11 15 14 20 26 23 6 19 20 19 24 29 29 29 26 27 36 42 39 36 38 33 26 24 22 21 21 21 17 16 17 17 17 19 19 18 16 14 13 11 13 11 11 11 12 12 11 9 9 9 8 9 8 9 8 7 8 12 17 15 11 11 13 14 13 13 12 10 8 9 8 10 10 11 11 8 7 8 9 11
11 19 24 15 10 11 12 11 11 14 12 9 10 9 12 16 14 12 5 24 21 24 25 31 21 25 26 30 31 30 28 26 25 25 29 32 32 30 33 35 30 27 22 18 16 18 18 17 17 17 17 17 16 16 16 15 13 14 11 11 10 10 9 10 9 9 10 9 9 9 9 8 8 9 6 7 8 10 8 7 8 8 6 6 9 7 7 6 7 5 6 7 6 7 9 9 12
10 14 11 9 5 16 12 10 12 15 14 13 9 10 18 9 9 8 12 16 26 23 23 33 36 22 23 24 28 28 28 29 30 28 29 25 28 27 23 20 16 18 19 22 21 19 18 18 17 17 17 16 15 16 16 16 16 15 13 12 12 10 11 10 8 10 10 11 9 10 10 9 9 9 8 6 8 9 9 9 9 8 8 8 7 8 7 5 8 5 5 6 6 5 8 9 11
21 18 8 5 12 11 4 14 20 18 22 21 18 15 9 11 12 8 9 16 17 32 40 39 39 39 35 32 29 30 30 28 29 30 27 25 24 20 23 22 28 25 22 21 19 18 19 17 18 19 19 18 16 14 16 15 15 14 12 12 13 12 10 11 11 10 11 10 10 11 12 10 10 10 10 8 8 8 9 9 9 9 10 10 8 8 8 7 8 6 4 6 6 8 8 9 11
16 25 5 12 11 11 11 9 8 17 27 30 27 16 16 12 20 7 13 10 18 21 27 41 39 42 37 37 38 36 33 31 31 33 35 35 33 25 23 25 23 23 23 20 20 20 21 20 20 20 19 19 17 17 17 17 15 15 14 15 14 13 13 12 12 12 11 13 10 11 11 11 11 11 11 10 10 8 10 10 8 9 10 10 9 8 8 8 9 6 4 5 7 7 10 10 12
18 25 12 13 10 12 15 11 10 11 11 15 18 21 24 18 17 9 15 12 16 21 22 23 28 31 35 36 36 40 38 38 37 30 21 19 20 22 15 16 18 18 20 22 21 21 20 20 19 20 19 19 17 18 17 16 16 16 14 14 14 14 14 14 14 12 13 13 12 12 11 11 10 11 12 13 8 10 9 9 9 11 10 10 8 10 8 9 10 6 7 7 7 8 9 11 13
18 13 10 14 16 11 13 18 17 13 11 8 16 23 25 19 10 15 16 13 17 23 29 25 22 23 26 33 36 37 38 37 35 33 34 27 28 30 20 23 25 21 24 23 22 21 19 19 21 22 22 21 20 18 18 18 17 17 16 15 15 15 15 15 12 13 13 14 13 12 13 13 13 13 13 10 11 11 9 8 9 10 11 10 9 11 10 8 9 7 7 7 8 8 10 13 15
10 8 16 18 16 17 13 17 20 15 14 6 14 18 24 19 11 22 6 17 20 11 11 21 28 23 25 27 33 36 39 35 32 29 22 23 26 31 33 24 23 26 25 24 23 23 22 20 20 20 19 19 18 19 18 18 18 19 17 15 15 16 15 13 13 13 12 12 13 13 13 14 13 13 12 12 11 11 9 9 11 9 10 10 10 11 6 10 6 7 8 9 8 9 10 14 15
12 9 7 16 19 18 15 13 19 15 21 15 16 20 21 32 12 28 12 10 17 25 22 23 25 31 35 31 29 26 25 23 20 19 25 24 29 29 26 29 26 23 25 25 23 21 21 21 22 20 19 20 19 18 17 18 19 18 17 16 16 15 13 13 13 12 12 12 11 14 13 14 13 13 13 12 12 11 10 11 10 10 12 9 10 10 8 8 8 8 6 6 7 10 14 15 12
10 7 6 10 8 24 19 28 20 20 24 10 7 9 20 26 21 16 11 10 13 29 28 26 29 31 29 31 30 24 23 25 27 22 23 27 27 27 31 29 30 26 22 25 24 23 24 22 23 21 20 19 19 18 19 17 18 18 18 17 16 15 14 13 14 14 13 11 11 14 14 14 13 14 13 13 12 11 10 9 9 12 11 9 9 10 10 7 7 6 6 7 9 11 15 16 14
9 3 8 8 6 11 13 16 22 23 30 11 11 24 18 27 32 12 7 13 9 18 28 26 24 24 26 29 28 23 21 21 20 25 22 21 19 19 21 19 22 29 25 23 23 26 23 19 20 19 20 21 20 18 17 17 18 17 17 17 16 16 15 15 15 13 12 12 12 13 14 14 14 12 13 11 10 10 9 10 11 11 10 9 10 9 9 8 8 8 9 10 12 14 18 16 15
8 11 5 8 4 14 9 17 12 23 24 18 10 21 21 22 25 8 9 15 18 22 26 22 18 21 25 21 22 27 25 29 29 27 30 27 22 21 22 18 21 20 20 22 26 26 23 22 22 21 21 20 21 19 19 17 16 17 17 17 16 17 16 16 15 13 12 13 13 13 13 13 13 11 11 13 11 11 11 10 10 12 11 9 9 8 10 9 9 10 11 12 10 12 15 15 14
7 8 11 8 7 12 11 9 16 25 23 23 14 25 24 20 25 6 10 17 21 25 25 27 23 21 22 27 27 22 27 28 26 27 28 28 31 29 26 24 22 20 21 25 26 25 26 23 23 20 20 21 21 21 18 17 17 16 16 14 16 15 15 16 15 14 13 12 14 13 12 13 12 12 11 11 12 11 11 11 13 11 10 9 9 8 9 11 10 10 8 13 16 14 16 14 11
10 7 6 6 3 10 12 5 12 21 17 18 23 24 7 23 23 13 9 15 24 24 26 22 25 25 27 24 27 29 27 30 33 29 25 25 29 30 32 29 27 27 26 25 24 25 24 25 25 22 24 24 21 19 18 15 17 16 15 16 16 16 15 15 15 14 12 13 14 14 12 13 13 13 13 12 13 12 11 12 11 11 9 9 9 9 9 11 13 12 8 7 12 15 15 15 14
10 4 7 5 5 5 11 12 4 8 18 20 19 33 17 10 10 7 6 15 19 24 28 25 26 28 29 26 26 28 28 26 27 30 31 29 25 25 29 30 30 27 24 28 27 28 29 27 26 25 24 23 22 22 20 19 17 16 15 15 15 17 15 15 13 14 14 14 13 14 12 13 13 13 13 12 12 13 13 13 10 9 8 9 9 9 9 11 11 13 12 7 11 17 15 15 15
9 5 6 11 4 5 9 7 7 4 6 21 23 23 18 18 20 17 9 9 15 24 28 27 27 26 30 27 25 25 25 26 30 31 33 32 27 26 23 22 23 24 21 24 29 28 26 23 21 21 23 22 21 20 18 16 15 14 14 15 16 16 15 13 14 15 15 14 15 15 13 13 13 12 12 12 12 12 11 10 9 7 8 9 10 9 9 10 9 8 13 10 8 8 14 13 14
11 8 8 4 7 9 11 11 10 7 7 12 12 13 12 15 18 20 14 7 14 16 19 22 24 25 28 29 27 27 26 30 30 28 30 31 30 28 25 22 21 21 22 21 21 25 26 26 23 22 20 22 19 17 18 17 16 18 17 14 16 16 15 14 14 17 16 16 16 15 14 13 12 13 12 12 13 13 12 11 11 8 8 10 10 10 9 11 12 11 10 15 15 14 11 14 13
11 11 6 9 7 11 9 10 14 7 7 12 16 8 8 9 13 19 12 8 9 13 17 18 18 21 18 21 23 24 25 30 24 18 14 19 24 26 22 22 23 19 19 19 20 22 24 27 23 23 21 21 22 22 23 23 23 19 17 20 20 17 18 15 15 14 16 17 17 16 14 14 12 12 12 12 13 12 12 11 10 8 9 11 11 12 13 12 12 13 13 10 18 18 15 12 13
13 12 8 12 4 9 12 11 10 9 9 8 9 9 9 14 13 16 8 10 12 15 17 24 25 19 20 21 31 30 32 21 12 10 11 12 13 15 16 17 15 20 18 20 24 25 24 23 23 27 24 24 25 25 24 23 22 26 25 22 19 19 18 18 18 15 18 17 17 16 14 12 12 13 13 13 13 13 12 11 11 11 11 11 10 8 8 11 11 12 14 12 5 17 16 14 16
8 12 12 9 15 11 17 11 6 8 8 16 13 11 9 12 13 17 15 12 13 18 19 23 25 23 23 30 24 27 27 18 17 18 17 20 19 16 19 19 21 25 23 24 22 20 20 20 20 19 21 25 24 24 23 24 20 19 22 21 21 18 13 16 18 18 17 17 17 16 15 13 13 12 13 13 13 12 12 12 12 11 11 11 11 10 10 11 13 15 14 17 16 5 8 13 15
8 3 3 9 9 4 11 10 7 11 7 9 14 16 15 9 10 17 15 14 9 10 15 17 23 26 30 37 32 33 28 20 20 18 16 17 21 20 18 20 19 17 18 16 17 19 20 21 19 20 21 21 22 23 23 20 19 16 15 17 17 18 18 14 14 14 15 15 16 15 14 13 13 13 13 14 13 12 11 12 10 10 12 12 14 13 12 11 12 12 12 13 18 17 11 13 11
5 5 5 4 3 5 10 10 9 7 11 5 10 10 14 8 9 14 15 15 10 8 9 9 12 20 26 31 33 34 36 25 18 14 15 16 16 23 25 21 21 21 22 23 23 25 24 25 25 25 24 24 22 22 21 17 17 15 15 13 13 10 8 12 13 14 17 17 16 13 17 12 13 14 13 14 14 13 11 10 11 11 11 11 12 13 14 15 15 15 15 15 14 18 16 13 14
11 8 10 6 5 7 7 7 7 14 12 9 10 11 15 14 11 14 20 19 16 7 11 11 13 12 14 22 25 26 29 35 29 26 21 19 22 19 21 26 25 22 22 23 24 26 23 23 25 27 25 21 22 21 19 21 24 24 21 21 21 21 20 20 25 25 20 19 21 16 12 13 13 13 13 14 14 11 12 11 10 11 10 11 11 13 14 13 13 14 16 16 14 12 20 17 18
6 12 5 6 6 6 4 6 8 6 9 10 7 11 16 14 16 13 15 11 15 6 9 12 16 15 12 18 21 24 25 26 24 19 18 20 18 19 19 24 30 30 27 24 23 23 23 21 20 21 24 27 24 21 23 23 21 21 25 28 27 28 27 24 16 16 19 17 13 14 14 11 13 15 13 13 13 12 12 12 12 11 11 11 11 11 12 14 16 15 14 13 14 13 13 18 20
9 7 5 5 5 6 5 7 5 8 6 8 9 9 9 12 17 8 10 13 15 7 9 11 15 16 17 17 19 19 25 24 26 26 24 25 24 25 23 22 25 32 35 28 24 23 23 22 20 22 22 21 20 24 24 25 26 23 23 21 21 22 22 21 17 16 15 15 15 15 14 14 12 14 14 14 13 12 12 12 12 11 11 11 11 12 14 13 13 13 16 15 13 14 16 18 18
12 7 7 6 7 5 6 9 5 3 4 13 12 8 7 9 15 11 6 8 9 11 11 12 12 12 14 17 19 19 22 25 27 26 24 24 29 29 26 27 26 25 27 36 34 29 25 23 22 20 22 22 20 20 25 25 26 26 25 25 22 23 22 15 14 14 16 14 15 14 14 14 13 13 13 14 14 13 13 13 12 12 11 11 11 11 11 13 15 15 14 14 13 13 14 12 16
8 7 7 7 7 7 6 6 6 6 8 9 5 6 11 12 13 13 7 9 6 10 8 10 10 11 12 15 14 20 18 19 23 30 30 30 30 33 37 39 35 30 25 24 31 32 30 25 22 21 21 20 21 21 23 24 23 20 20 21 21 21 14 14 16 17 16 14 16 15 14 14 14 13 12 12 12 12 13 12 12 13 12 12 12 12 11 12 12 14 18 17 15 15 12 13 17
10 6 8 10 10 8 6 11 8 11 6 9 7 5 8 10 13 9 7 9 7 9 11 7 9 8 10 11 14 21 20 20 22 23 29 31 32 34 33 34 38 38 30 24 21 24 25 26 25 24 24 23 20 22 22 24 23 21 24 23 21 19 17 18 16 16 17 15 19 18 17 16 14 15 14 13 13 12 13 12 12 13 12 12 13 12 12 13 13 14 15 15 16 17 15 13 11
9 11 7 11 14 13 10 10 10 8 12 9 7 5 5 10 13 12 12 9 5 6 8 10 9 8 9 9 12 16 18 21 25 27 28 29 27 24 19 21 25 31 29 30 28 24 21 23 23 24 21 19 20 22 21 22 23 22 20 19 20 19 20 21 23 22 21 22 20 19 14 13 14 14 14 13 13 12 13 13 12 12 13 12 14 13 12 13 13 12 13 14 14 15 13 15 14
16 11 17 10 10 14 13 11 9 8 15 6 5 5 7 8 17 14 11 11 11 6 8 10 8 9 9 10 11 16 15 14 22 26 27 27 26 26 25 24 19 16 20 22 24 24 26 24 24 25 24 22 22 21 22 22 22 22 23 22 19 19 20 20 21 19 18 20 18 16 17 19 14 15 17 17 15 14 14 14 14 15 14 14 13 12 12 12 13 13 13 13 14 14 16 16 16
13 11 6 8 6 7 8 11 9 10 13 9 6 6 9 11 18 13 16 12 9 8 9 9 7 7 9 11 12 14 14 14 18 21 25 28 28 27 27 27 27 28 23 22 22 23 23 24 24 25 26 24 21 21 22 23 24 24 22 22 22 21 21 21 19 20 19 18 18 19 19 19 18 19 17 18 16 14 13 13 14 14 14 13 13 13 13 12 13 14 13 14 14 16 14 16 17
4 3 6 7 10 11 7 9 9 12 13 14 9 8 16 7 14 4 8 12 12 10 10 8 6 7 8 10 11 13 11 13 14 18 23 27 31 30 28 28 28 32 34 31 25 23 23 24 26 26 24 23 24 24 23 24 25 22 20 21 20 19 22 22 21 19 20 19 17 18 18 16 18 17 18 15 13 15 15 14 13 14 14 14 13 13 13 13 12 12 13 13 14 14 15 16 15
5 5 9 10 7 12 5 10 6 10 14 17 13 16 9 16 11 16 12 13 13 13 12 7 11 6 7 9 10 11 12 13 13 15 20 23 23 23 26 29 30 32 32 32 31 29 26 25 25 26 27 26 25 24 24 26 25 23 21 21 22 21 19 18 17 16 18 18 18 19 18 17 16 15 13 14 14 16 16 15 14 15 14 14 13 13 13 13 12 13 12 12 13 11 14 14 15
8 8 4 9 9 10 9 8 5 6 10 21 10 18 19 16 13 10 13 13 18 14 16 14 14 11 5 7 9 9 11 12 13 14 17 20 19 20 21 20 21 30 32 32 31 31 31 29 25 25 24 22 25 25 26 24 24 21 22 22 20 19 19 20 23 22 22 20 19 18 18 17 13 14 15 15 16 14 16 16 16 14 14 13 13 13 13 12 13 13 14 13 14 11 13 15 13
8 10 11 5 5 9 10 9 12 8 8 24 8 13 14 8 29 12 13 14 14 14 13 14 15 16 9 7 9 11 13 11 11 13 21 26 26 24 25 22 23 24 30 35 33 30 30 30 29 30 27 26 25 24 24 23 23 22 21 22 21 22 24 24 22 21 20 19 17 16 14 16 19 17 16 14 14 16 15 16 15 14 14 13 14 13 13 12 12 13 13 14 14 12 13 11 11
8 11 4 12 11 10 10 10 9 9 15 18 15 8 15 13 24 14 15 15 18 17 15 14 18 17 16 8 9 11 13 13 15 15 16 16 21 27 27 25 24 25 29 31 34 34 29 27 27 29 30 30 29 27 24 24 24 24 24 25 24 24 22 20 19 18 17 19 20 19 19 19 14 15 17 16 16 15 16 16 15 15 14 14 13 13 13 13 12 12 12 12 11 11 12 12 11
4 5 10 6 12 8 5 11 8 10 10 7 18 7 27 20 20 10 15 11 12 14 15 16 17 15 17 15 8 11 13 14 16 16 16 16 18 21 25 27 26 24 26 26 29 30 30 30 28 28 28 25 23 25 25 24 24 22 21 23 24 24 23 22 20 20 22 22 22 21 19 16 19 16 15 15 16 17 16 16 15 15 14 13 13 13 13 13 13 13 12 12 11 12 12 13 12
12 14 9 10 10 8 10 6 11 12 14 12 15 25 31 24 11 7 11 11 12 12 15 15 14 13 14 14 12 8 15 17 16 16 17 17 17 18 23 25 30 27 29 29 27 29 30 28 27 28 28 26 26 26 24 23 21 21 20 21 23 22 22 22 20 20 21 21 19 18 19 18 13 17 16 16 17 18 17 17 15 15 16 15 14 14 12 12 13 13 12 12 12 13 13 12 10
5 9 12 12 5 9 6 18 7 10 16 18 11 35 33 28 12 14 12 13 12 12 13 15 12 13 15 16 11 8 10 13 14 15 18 17 17 19 19 22 24 34 37 32 34 33 29 28 28 29 28 28 27 26 24 22 20 20 20 21 21 20 22 21 23 22 22 21 20 20 19 17 19 19 17 18 18 18 17 17 16 15 15 15 15 15 14 14 14 13 12 12 12 13 13 11 11
Wind_Speed
1 2 3 3 0 2 1 1 1 2 1 2 0 1 1 2 3 2 4 4 3 1 1 0 2 1 2 2 5 6 1 6 4 8 7 1 1 6 10 14 16 14 14 12 11 12 13 15 18 19 19 19 18 18 18 18 18 17 17 18 18 18 18 18 18 18 18 17 17 17 17 16 16 16 16 16 15 15 14 15 14 14 13 13 14 14 14 14 13 13 12 11 11 11 11 10 10
2 4 3 1 2 1 0 1 2 1 3 1 4 2 3 2 2 3 4 4 3 1 2 2 0 4 4 7 6 6 3 0 4 1 1 3 6 5 10 13 16 16 13 12 11 10 11 13 18 18 19 19 19 18 18 18 17 17 18 17 16 16 16 17 18 17 17 17 16 15 16 16 15 15 15 15 14 14 14 14 13 13 12 13 13 14 13 13 13 12 11 10 11 11 10 9 9
3 5 3 0 1 1 1 1 1 2 4 5 4 6 2 2 3 5 5 5 4 2 0 1 2 2 2 1 1 2 1 4 5 4 4 7 10 4 12 12 14 14 14 12 11 10 9 12 17 18 19 20 19 19 18 17 17 16 17 18 17 17 17 16 17 17 16 15 15 15 15 16 15 14 14 14 14 14 13 13 13 12 12 12 13 13 13 13 13 12 10 10 10 10 10 10 9
4 1 6 2 1 2 1 2 2 7 5 4 1 4 2 2 3 4 5 2 4 1 1 2 2 2 1 2 0 0 3 1 2 7 6 9 2 8 11 15 15 12 10 9 10 9 9 14 18 18 19 19 19 18 17 17 17 17 17 17 17 17 17 16 17 16 15 15 14 14 15 15 15 14 14 14 13 13 13 12 12 12 11 12 12 12 12 13 12 11 10 10 10 10 11 10 9
2 1 1 2 4 1 2 2 3 4 7 5 6 3 4 5 6 4 3 4 3 1 2 1 2 2 1 3 0 1 1 1 7 4 5 4 10 7 11 14 14 14 11 11 10 9 10 16 16 17 19 19 19 18 17 17 17 16 17 17 17 17 17 17 17 16 15 15 14 14 14 14 14 13 14 14 13 13 12 12 11 12 11 11 11 11 11 12 12 10 10 10 10 11 12 11 10
4 3 0 0 1 1 2 0 1 5 4 5 3 5 8 4 5 4 4 4 4 0 2 2 1 2 2 2 1 1 2 1 2 3 4 5 13 12 11 11 13 14 12 11 10 8 9 18 16 17 18 19 19 18 16 17 17 16 16 16 17 16 16 16 16 16 15 14 14 14 13 13 14 13 14 14 13 13 12 12 12 11 11 11 11 11 11 11 11 10 9 9 10 12 12 11 10
2 4 0 1 1 1 4 4 6 5 6 4 3 3 7 6 3 1 2 4 1 1 1 1 2 1 3 1 1 2 3 3 1 2 6 9 12 12 12 10 10 12 13 11 11 9 11 17 15 16 17 19 19 18 17 17 16 16 15 16 16 16 16 16 16 15 14 14 14 13 13 13 13 13 13 13 13 13 12 11 11 11 10 10 10 10 11 11 10 9 9 9 11 12 12 11 11
0 3 2 4 2 1 2 4 6 6 4 7 3 4 4 5 4 3 2 3 4 0 2 2 2 3 0 1 2 3 8 6 5 13 15 11 12 10 11 11 13 11 9 11 10 9 15 17 14 14 16 18 18 18 18 16 16 16 16 16 16 16 16 16 16 14 14 13 13 13 12 12 12 13 12 13 13 12 11 11 11 11 10 9 9 9 10 10 9 8 8 9 12 13 12 11 11
1 2 1 4 3 0 0 6 5 2 2 1 6 3 2 6 5 2 1 2 2 0 0 1 0 3 1 4 2 2 5 7 8 16 14 13 12 10 8 10 12 12 12 11 11 10 11 17 14 14 15 17 17 17 17 17 16 16 15 16 15 15 15 16 15 14 14 13 13 13 13 12 11 12 11 12 12 11 11 10 10 10 10 9 9 9 10 10 9 8 8 10 13 13 13 12 12
1 2 3 3 3 9 4 3 6 6 7 5 6 6 4 4 1 2 1 2 1 0 1 0 2 4 1 3 4 4 3 4 10 14 13 12 11 8 7 7 9 13 9 8 11 10 9 17 17 14 14 16 16 16 15 15 15 15 15 16 14 15 14 15 14 13 13 13 12 12 12 12 12 11 11 11 11 10 10 10 10 9 9 8 9 9 9 10 8 7 8 11 13 13 13 13 13
3 1 1 2 4 7 11 6 6 0 4 3 4 6 5 1 1 1 1 1 1 3 3 4 4 4 3 1 1 2 3 3 11 13 11 11 9 8 6 7 8 11 12 8 9 10 10 11 18 16 14 15 15 14 13 13 13 14 14 14 13 14 14 14 14 13 13 12 12 12 12 12 12 12 11 11 11 10 10 9 9 8 7 8 9 9 9 9 8 7 8 10 12 13 13 13 13
2 4 1 6 8 10 6 7 4 5 2 1 4 5 3 4 2 0 2 2 1 4 5 3 3 5 4 0 1 2 4 1 4 13 12 9 8 6 6 7 9 10 13 9 8 10 10 9 10 15 17 15 14 13 12 13 13 12 13 13 13 14 14 14 14 13 13 13 12 12 12 13 13 12 12 12 11 10 10 9 8 7 7 7 8 8 8 8 8 7 8 10 11 12 13 14 13
3 3 5 2 5 4 3 5 7 4 4 6 4 3 3 5 5 6 4 6 4 4 2 4 3 2 3 3 1 2 3 2 2 12 13 11 9 7 6 6 7 8 11 9 9 10 10 9 9 9 12 17 14 13 12 12 13 12 13 13 13 15 15 14 13 13 13 13 12 12 12 12 13 13 12 12 12 10 10 9 7 6 6 7 8 8 7 7 7 7 8 10 11 12 13 13 13
4 5 7 8 1 4 7 4 4 9 8 4 5 1 3 3 5 7 4 5 6 5 4 9 3 3 3 1 1 2 3 4 3 2 9 11 10 9 8 7 6 7 8 9 9 10 10 8 8 8 10 10 9 13 14 13 13 13 13 13 14 15 15 14 13 13 12 12 12 12 13 12 13 13 13 12 12 11 11 9 7 6 5 6 7 7 7 7 7 7 8 10 11 11 12 13 13
6 1 3 2 2 4 4 9 9 6 8 6 3 4 3 4 2 4 8 6 9 2 1 4 5 2 2 7 3 8 8 10 7 3 7 10 11 11 10 7 8 6 5 7 7 9 10 9 8 8 8 8 9 7 7 10 15 14 14 14 14 15 15 15 14 13 12 12 13 13 13 13 13 14 14 13 12 12 12 10 8 6 6 5 6 5 6 7 7 7 7 9 10 11 12 13 14
3 3 2 4 10 9 4 9 4 7 7 6 5 7 6 5 4 4 4 6 1 1 6 2 2 3 2 8 7 10 14 13 12 9 9 13 12 10 10 9 7 8 6 6 6 6 7 9 8 7 7 8 7 7 7 6 13 16 14 15 15 16 16 15 15 14 13 12 13 13 13 11 12 10 14 10 12 13 12 8 8 6 6 6 5 5 6 7 7 6 6 8 10 10 12 13 14
1 1 3 5 12 11 4 7 8 8 2 5 3 5 6 5 4 3 1 4 5 4 3 5 7 3 5 5 6 18 16 15 12 13 12 11 12 11 7 6 5 5 6 7 6 6 7 8 8 7 7 8 8 7 7 6 8 15 13 15 15 16 15 16 15 15 13 12 11 11 11 7 5 5 8 5 11 7 10 11 9 7 6 6 5 5 5 6 6 5 6 9 10 8 10 13 14
2 5 7 11 7 8 4 6 5 3 5 5 6 7 8 6 1 2 0 1 2 4 4 2 2 6 2 2 8 14 19 19 16 17 14 12 10 12 11 9 8 9 7 7 7 6 7 7 8 8 8 9 8 7 6 6 6 11 7 7 8 11 13 13 11 8 9 5 11 8 4 5 5 5 5 7 5 7 8 11 9 7 7 7 6 5 5 5 5 5 6 8 10 8 9 6 8
5 0 3 13 6 4 5 4 5 4 2 6 9 7 8 8 5 3 3 3 4 3 4 5 4 3 6 9 13 16 15 14 17 16 17 18 12 17 13 10 11 8 8 7 7 8 8 7 7 8 9 9 9 8 6 6 6 5 6 6 6 9 10 9 6 7 4 5 4 3 3 3 4 4 5 5 4 8 7 10 9 8 7 7 6 5 4 4 4 6 7 7 8 8 6 5 6
4 2 6 10 1 2 3 3 5 4 4 3 3 3 6 3 5 2 6 8 7 9 6 0 6 4 6 9 12 15 17 17 17 18 20 20 17 17 15 15 13 12 12 9 9 7 8 8 9 8 9 9 8 7 6 6 5 6 6 5 5 5 6 6 5 5 5 3 3 3 2 3 3 5 7 11 11 5 5 9 9 8 8 7 6 4 5 6 7 6 6 6 5 3 5 5 6
2 5 6 2 3 2 3 3 3 3 2 1 3 1 2 2 3 2 2 5 5 5 6 10 8 10 9 12 15 15 17 16 15 14 11 10 10 10 18 20 15 14 11 9 8 9 11 9 9 8 8 8 8 7 7 6 6 6 5 5 5 5 5 5 5 5 5 4 4 3 3 2 3 4 4 4 4 4 2 3 4 4 4 4 5 4 3 2 3 1 2 2 2 4 5 5 7
0 6 5 5 1 1 4 5 7 4 4 2 1 1 4 1 1 5 5 7 7 6 7 9 13 12 12 13 15 14 16 17 16 14 11 11 11 9 8 5 9 10 11 11 11 10 11 10 9 8 9 8 9 7 7 7 8 6 6 6 5 4 5 5 5 5 5 4 4 4 3 3 4 4 3 3 4 4 3 3 4 4 5 4 4 3 2 2 1 1 2 2 2 2 5 5 6
6 4 3 3 4 4 2 2 4 5 2 4 2 4 1 2 3 3 5 9 6 5 4 13 13 12 16 18 17 15 14 17 17 16 12 9 7 3 5 12 12 12 10 10 10 9 9 10 10 9 9 8 9 7 6 6 6 6 5 5 6 5 5 5 5 5 5 5 4 4 4 3 4 3 3 4 4 4 3 3 4 4 5 4 3 3 2 2 1 1 1 3 3 4 5 5 6
5 7 0 3 2 6 6 4 4 1 2 4 3 1 1 1 2 1 1 6 6 5 4 3 3 1 11 13 18 21 20 19 19 15 10 8 6 4 4 10 12 11 12 10 10 10 11 11 10 10 9 9 8 8 8 7 6 6 6 7 6 6 6 5 5 5 5 5 4 4 4 4 4 4 3 4 3 2 3 3 4 4 4 4 3 3 3 2 1 1 1 3 4 4 5 6 6
4 4 3 4 5 4 4 5 4 4 5 6 2 2 5 3 3 1 5 7 10 6 3 3 2 9 11 13 17 20 20 19 18 14 10 10 9 9 10 5 6 5 10 12 10 11 11 11 11 11 9 10 8 8 8 7 6 6 6 6 6 8 5 5 5 5 5 5 4 4 4 5 4 4 4 3 4 3 2 3 3 4 4 4 4 2 2 2 2 1 2 3 4 5 5 6 7
1 3 1 3 4 5 6 7 7 5 3 2 4 9 3 5 5 5 8 8 11 12 4 5 6 10 13 16 18 18 18 19 16 13 14 12 11 13 13 11 9 9 9 12 12 10 10 11 12 12 11 10 9 8 7 7 7 7 7 7 6 7 5 5 5 5 5 5 5 4 4 5 5 5 4 3 4 4 3 3 3 4 4 4 4 3 3 3 3 2 2 3 4 5 6 6 7
2 3 5 6 7 5 4 8 8 4 3 1 3 3 6 4 5 7 3 12 10 4 4 3 9 11 13 13 12 10 10 12 13 12 9 8 12 14 14 12 11 12 11 10 10 10 11 11 11 11 10 10 8 9 8 8 7 7 8 7 6 6 5 5 5 5 5 5 5 5 5 5 5 4 4 4 4 4 4 4 4 3 4 4 4 4 3 4 3 4 5 4 4 5 6 7 7
5 4 4 6 9 7 5 5 7 4 3 6 5 6 6 9 4 11 4 3 6 5 4 7 8 10 12 14 14 13 14 8 4 0 10 14 14 14 14 14 14 11 12 12 11 11 11 13 12 12 10 10 10 9 9 8 8 8 9 7 6 6 6 6 6 5 6 5 5 6 5 5 4 4 4 4 4 4 5 5 4 4 5 4 4 4 4 4 4 5 4 3 4 6 7 7 6
5 0 3 7 2 3 5 8 6 4 5 3 5 1 4 6 12 7 4 3 6 5 7 9 9 10 12 12 10 9 11 14 16 13 14 14 13 9 16 18 18 15 11 14 14 14 15 14 12 13 11 11 11 11 9 8 7 8 8 8 6 6 6 6 6 6 6 6 6 6 6 6 5 5 5 5 4 5 4 4 5 5 4 4 4 5 5 4 4 3 3 4 5 6 8 7 7
3 1 2 5 3 2 7 5 5 7 3 7 6 7 8 14 13 1 5 7 4 3 6 9 9 10 11 11 11 11 9 10 13 15 13 11 11 11 8 8 13 15 12 9 9 11 11 9 9 9 11 11 12 9 8 8 8 8 7 7 7 6 6 6 6 5 6 6 6 7 6 6 5 5 5 5 4 4 5 5 5 5 4 5 5 5 5 4 4 5 5 5 7 8 8 8 7
3 3 1 3 2 3 4 7 6 10 5 7 5 9 11 13 3 3 4 5 5 5 7 8 8 9 9 9 10 11 12 14 15 13 12 11 10 8 9 9 10 9 9 10 15 16 14 12 10 10 12 12 11 10 11 9 8 8 8 7 6 6 6 6 5 5 6 6 6 6 7 6 6 6 6 5 5 5 5 5 5 5 4 5 5 5 5 4 5 5 6 6 6 6 8 7 7
2 3 4 3 4 6 6 4 10 12 2 9 6 10 12 11 3 4 2 3 6 8 8 9 9 9 10 9 9 8 10 8 10 13 11 9 8 8 11 12 12 12 12 14 13 11 13 13 14 12 13 13 12 11 10 9 8 8 7 7 6 6 6 6 6 6 6 6 6 6 7 7 7 7 6 6 5 5 5 5 6 4 5 5 5 5 5 6 5 5 4 7 8 7 7 7 5
4 1 4 2 1 5 6 3 8 15 5 5 13 8 2 8 6 6 3 3 3 3 5 8 11 10 10 9 8 8 6 4 4 8 10 11 8 8 10 11 13 14 12 12 12 12 11 12 13 13 15 15 13 12 11 9 8 9 8 7 8 7 7 6 6 6 6 6 6 6 7 7 7 7 6 6 6 6 5 6 5 5 5 5 5 5 5 5 6 5 4 4 7 7 8 9 7
4 1 3 1 1 1 4 7 1 3 9 7 11 14 3 2 3 4 3 7 5 3 5 8 10 10 11 10 10 8 9 8 10 11 12 12 10 9 7 9 13 12 11 12 10 13 14 12 11 13 13 13 12 11 10 8 7 6 6 6 7 7 8 7 6 6 6 6 6 6 7 7 7 7 7 6 6 6 6 6 5 5 5 5 5 5 5 4 5 6 6 4 6 8 7 8 8
4 2 2 3 2 2 5 0 1 3 4 9 11 7 5 4 7 8 4 4 5 9 10 9 10 11 10 10 11 11 10 10 13 11 11 12 11 11 9 9 10 11 9 11 15 14 11 11 11 11 10 11 10 9 8 7 6 5 5 6 7 7 7 7 6 6 7 6 6 7 7 7 7 7 7 7 7 6 6 6 5 5 5 5 6 5 5 5 5 4 6 6 5 5 7 7 7
1 1 2 1 3 4 5 5 3 1 1 7 4 5 6 4 7 10 2 4 8 7 5 6 11 12 12 12 11 10 11 14 15 10 10 11 11 12 11 9 10 10 12 11 11 11 11 11 9 9 9 10 8 7 7 7 6 7 8 6 7 8 7 6 6 7 6 6 6 6 7 7 7 7 8 7 7 6 6 6 6 5 5 6 6 6 5 5 7 7 6 9 9 7 6 7 7
0 1 1 4 3 6 4 5 6 3 1 5 5 5 4 6 9 11 3 4 5 5 5 5 5 8 10 11 10 12 13 16 2 5 7 9 9 8 9 9 9 12 12 11 9 10 11 12 11 12 11 11 11 11 10 10 10 9 8 9 10 8 8 7 7 6 6 7 7 7 7 7 7 7 7 7 7 7 7 6 6 5 6 6 6 7 8 8 6 7 7 6 11 10 8 7 7
3 2 2 3 2 5 5 3 1 2 1 2 1 6 6 8 8 3 2 5 8 9 7 7 8 8 7 7 7 9 11 1 4 4 6 7 8 6 5 7 6 6 8 11 11 12 11 12 13 12 10 11 12 12 10 9 9 9 9 9 8 8 8 8 8 7 7 6 7 7 7 7 7 8 7 8 7 8 7 6 7 7 7 6 6 5 5 5 7 7 7 6 3 9 7 7 8
1 3 3 2 6 6 11 7 3 2 4 4 0 3 4 8 9 1 6 7 5 9 11 10 11 10 6 6 6 6 3 5 3 5 7 9 10 7 6 7 8 16 13 11 12 11 11 11 11 10 11 12 12 11 10 11 9 7 7 4 7 6 6 6 7 8 9 8 8 8 7 7 7 7 8 8 7 7 7 7 7 6 7 6 6 6 6 7 7 10 9 9 7 2 4 7 9
4 2 1 3 2 1 3 2 3 4 1 1 2 3 5 5 5 5 6 5 3 6 6 7 11 12 11 11 10 9 8 7 7 7 7 7 10 11 9 7 8 9 8 9 10 12 10 11 11 12 12 12 12 13 12 9 9 7 4 3 4 4 4 5 6 7 7 7 8 8 7 7 8 8 8 8 7 7 7 7 6 6 7 7 8 7 7 7 6 7 6 8 10 9 4 7 7
2 2 1 2 2 2 4 3 4 2 1 3 3 2 3 3 0 4 1 3 3 2 2 4 6 7 13 12 11 11 12 10 9 7 7 7 9 12 13 11 7 9 12 12 12 13 11 15 14 14 13 13 11 11 12 9 7 6 5 2 2 3 0 5 6 7 8 8 8 7 8 8 8 8 8 9 8 8 7 6 7 6 7 7 7 7 8 8 9 9 9 9 9 8 8 5 7
5 3 3 3 3 5 4 3 2 4 1 3 1 1 2 3 3 7 5 2 2 2 1 5 8 8 7 9 12 11 11 10 13 12 11 11 10 6 7 9 10 10 11 12 13 14 13 13 13 12 10 10 10 11 12 10 9 9 8 7 8 9 9 8 12 12 8 8 9 7 6 8 8 8 8 9 9 7 7 7 6 7 6 6 6 7 8 7 7 7 8 9 8 7 10 8 8
2 2 3 2 3 1 3 2 3 2 1 1 2 3 2 4 2 4 1 0 4 3 2 5 5 7 7 9 8 8 10 9 8 8 9 10 11 11 12 12 13 13 13 10 9 11 11 10 11 13 12 11 12 12 14 11 10 9 12 14 14 14 14 11 8 8 10 8 6 7 7 7 8 9 8 8 8 7 7 7 7 7 7 6 6 6 7 8 8 8 7 7 8 7 8 9 11
1 2 1 2 2 1 1 3 3 1 2 2 5 3 1 1 4 1 3 2 4 2 5 6 4 5 7 8 7 7 9 10 10 11 13 14 15 15 15 14 13 15 13 10 11 10 11 10 10 11 10 10 10 11 12 12 12 11 12 13 11 11 11 10 8 7 6 7 8 8 6 6 7 8 9 8 8 8 7 7 7 7 7 6 6 7 8 8 7 6 8 8 7 8 9 9 10
3 1 1 3 1 1 1 3 3 0 1 3 6 5 1 2 4 2 2 4 2 5 5 6 6 3 4 5 5 6 9 11 11 9 11 11 14 15 15 15 16 14 13 13 12 12 11 11 11 10 9 8 8 10 12 13 13 14 14 13 12 11 12 7 6 6 7 7 8 8 7 7 7 8 8 9 9 8 8 8 8 7 7 7 6 6 6 8 10 9 8 7 8 7 7 7 9
2 1 3 4 4 4 2 2 1 2 3 2 2 3 1 4 4 5 2 4 1 5 5 6 6 7 4 5 5 6 5 4 5 9 11 12 13 14 15 16 15 15 15 14 13 10 10 10 11 12 12 10 10 11 12 13 14 11 11 12 14 12 7 4 6 8 8 7 9 9 8 8 7 7 7 7 8 8 8 7 7 8 8 7 6 7 7 8 8 8 10 10 9 9 6 7 9
1 2 0 4 6 4 3 6 2 4 1 2 2 1 1 1 3 3 2 1 2 1 1 2 5 5 4 3 3 4 5 5 4 5 6 8 7 6 5 9 13 11 8 11 12 12 11 11 12 13 14 11 11 12 11 12 11 11 12 13 13 12 8 6 7 7 8 8 10 10 9 8 7 8 8 7 8 8 7 7 7 8 7 7 7 7 7 8 8 8 8 8 9 9 8 8 7
3 2 1 3 1 6 3 4 5 2 2 4 2 0 1 4 3 3 5 3 2 3 2 2 4 5 6 5 5 4 3 4 4 3 4 3 2 4 5 8 8 9 8 9 9 10 11 12 13 14 11 11 11 12 13 13 12 12 12 13 13 11 10 8 11 12 11 11 10 9 7 6 7 7 7 7 7 7 7 7 7 7 7 7 7 7 7 7 7 7 7 7 7 8 7 8 7
7 4 6 1 2 3 1 5 1 0 3 0 4 2 2 2 6 2 2 3 3 3 0 1 3 6 6 7 7 5 3 2 2 3 4 4 4 4 7 9 8 9 12 13 12 11 11 11 14 15 14 13 12 12 14 14 13 13 12 12 11 10 10 10 10 10 10 10 9 8 8 9 7 8 8 8 8 8 7 7 7 7 6 7 7 7 7 8 8 7 7 8 8 9 8 9 8
5 3 2 3 1 2 0 2 0 3 4 2 2 2 1 3 7 4 3 5 4 3 4 3 3 4 6 7 8 8 9 5 3 3 2 4 5 6 6 6 8 9 11 12 12 12 11 11 12 15 16 15 13 13 13 13 15 14 12 11 11 9 10 11 10 10 9 9 9 10 10 9 9 9 9 10 8 9 7 8 8 8 8 8 8 8 8 8 8 8 8 8 9 8 7 9 9
0 2 1 2 4 3 2 3 1 2 3 3 4 2 3 3 3 2 1 4 4 6 4 2 4 4 4 6 6 6 6 8 5 4 3 4 4 5 7 8 8 9 10 11 10 11 11 12 13 15 15 14 15 16 14 15 14 14 12 11 10 9 10 10 9 8 8 8 8 9 9 9 9 9 10 8 8 9 9 8 8 8 8 8 8 7 7 7 7 7 7 8 7 7 8 8 8
1 2 3 5 1 4 1 2 2 2 0 3 1 3 2 4 4 3 2 2 1 3 4 3 2 4 5 5 6 6 7 7 7 7 6 4 4 4 4 6 8 10 11 10 10 10 10 12 12 15 16 16 16 16 15 16 15 13 13 12 11 10 9 8 7 6 6 8 8 9 9 9 9 8 7 7 8 9 9 9 9 9 9 8 8 8 8 7 8 8 7 7 8 6 7 8 7
2 1 0 1 3 5 4 1 2 3 4 3 0 7 5 7 8 3 4 6 4 4 3 2 2 2 3 3 5 6 6 6 7 7 6 7 4 3 4 5 6 9 10 12 12 12 13 12 11 12 12 10 13 15 15 14 13 12 13 13 11 10 10 12 11 11 9 8 9 9 9 9 8 7 8 8 9 9 9 9 9 9 8 8 8 8 8 8 8 8 8 8 8 7 7 8 7
2 3 2 0 1 2 4 2 2 3 2 4 2 2 5 2 5 5 8 5 1 1 1 3 6 3 1 3 5 7 7 7 7 7 5 5 5 5 4 6 7 8 10 12 13 12 11 12 13 14 12 12 12 13 13 13 14 14 13 13 13 13 12 12 11 10 9 7 7 7 6 7 9 9 8 8 8 9 9 10 9 9 8 8 9 8 8 8 8 7 8 8 8 8 8 6 6
1 1 1 1 1 1 3 3 1 0 1 3 4 2 4 4 6 7 9 6 6 6 3 1 1 3 3 4 6 8 8 9 9 10 10 10 8 8 8 8 6 7 8 9 10 11 10 11 12 14 15 14 13 11 11 12 14 12 13 14 14 12 11 10 9 9 7 7 8 7 7 9 8 7 8 9 9 9 9 9 9 9 8 9 8 8 8 8 8 7 7 7 7 7 7 7 6
2 1 2 0 2 1 0 1 2 4 2 3 4 2 4 5 5 3 6 5 5 6 5 5 1 1 3 5 5 6 8 9 10 10 10 10 10 8 7 9 11 11 6 6 8 8 11 12 12 12 11 10 10 11 11 10 10 10 12 12 12 11 10 9 9 8 8 8 8 8 8 7 8 7 8 9 9 10 10 10 9 9 9 8 8 8 8 8 8 7 7 7 7 8 8 8 7
6 6 3 4 2 1 3 1 1 1 2 3 1 5 6 6 5 3 6 6 7 5 7 5 3 0 1 2 3 5 6 7 9 10 11 11 11 11 9 7 8 9 8 6 5 9 11 10 11 13 13 13 14 14 13 13 11 10 9 12 13 12 12 10 9 9 9 10 11 11 9 8 6 8 8 9 10 10 9 9 9 9 10 9 9 8 7 7 8 8 7 8 8 8 8 7 6
1 2 2 2 3 1 1 2 2 3 1 1 1 8 7 6 6 8 5 3 6 4 4 5 4 4 1 3 4 5 6 6 7 9 9 11 11 11 10 7 6 7 7 8 7 6 8 10 12 12 11 12 14 13 13 13 11 11 12 11 11 11 11 9 9 9 10 10 9 8 8 7 9 9 9 10 10 9 9 9 9 9 9 9 9 9 9 8 8 8 8 7 7 8 8 7 7
Wind_Direction
63 87 114 142 70 95 63 316 112 302 79 221 269 192 225 239 247 305 259 344 356 261 198 303 218 121 175 202 168 147 191 139 197 146 214 270 140 108 125 130 131 130 134 141 141 141 144 148 146 141 137 135 133 132 132 131 129 127 124 122 120 118 117 119 118 117 116 113 116 118 119 118 118 120 120 119 118 117 116 115 115 115 111 108 103 102 102 101 99 97 98 99 100 100 100 102 104
114 115 124 149 144 60 265 147 104 30 37 68 243 131 247 277 344 231 269 263 211 210 202 186 120 96 93 131 130 137 65 147 186 179 115 117 79 93 127 133 133 133 134 141 138 138 143 148 146 142 139 136 135 135 136 136 134 129 128 125 120 119 119 119 117 114 113 113 115 117 119 119 119 120 121 120 118 117 115 115 116 111 107 105 104 103 103 101 98 97 98 97 95 94 96 98 101
102 113 81 18 29 80 277 39 237 162 141 210 263 209 328 291 251 286 251 234 226 230 63 301 159 73 36 62 34 139 215 143 117 103 98 121 121 164 137 136 127 128 133 138 136 139 143 148 147 143 140 139 138 139 140 139 136 133 130 127 124 124 124 120 117 114 112 111 114 117 120 121 120 121 122 122 120 118 116 115 113 107 104 103 102 102 102 99 97 97 95 91 88 87 88 87 87
99 132 133 123 61 22 60 32 104 146 183 206 240 251 205 210 270 270 286 286 297 346 27 26 48 258 111 64 227 62 79 334 51 133 132 169 126 144 142 133 127 127 128 132 135 141 143 150 149 143 141 140 142 142 143 142 139 135 132 128 127 128 127 123 119 115 113 113 114 117 122 123 122 124 128 126 121 118 115 115 111 105 101 100 101 101 100 97 96 96 93 89 85 83 78 75 76
122 115 126 112 114 240 140 200 156 133 200 179 187 263 222 219 247 265 272 280 297 66 74 43 77 0 124 108 55 83 340 82 143 150 120 105 109 143 137 133 128 131 134 134 137 140 146 150 150 144 141 143 143 143 146 145 141 136 133 130 129 130 128 125 122 119 118 117 119 119 124 126 126 130 132 129 124 120 119 118 112 106 100 98 97 97 96 95 94 94 92 89 84 76 73 72 73
64 82 36 105 234 192 60 87 235 202 229 166 139 218 216 206 216 221 273 307 285 94 150 85 142 213 16 10 115 93 309 75 157 73 108 139 134 142 136 129 130 134 137 137 136 143 147 153 151 146 144 144 144 147 148 147 143 137 134 132 133 133 130 128 125 122 120 120 121 123 125 129 131 132 134 131 127 125 125 120 111 106 103 100 98 97 97 94 94 92 90 85 77 69 66 68 72
159 76 14 28 311 54 193 185 209 201 253 192 197 205 201 199 194 130 296 330 266 6 336 100 88 108 76 322 39 83 338 246 150 139 103 132 127 132 132 127 127 134 140 139 140 144 150 152 153 148 146 145 147 149 150 148 144 138 137 137 136 135 133 130 126 125 122 124 126 126 128 131 133 133 135 133 130 128 128 121 110 102 99 96 97 96 93 91 92 91 88 83 75 71 70 70 74
95 118 197 119 220 103 223 207 221 162 260 189 232 162 201 213 152 146 263 74 302 359 1 84 85 99 265 350 147 341 17 8 103 107 111 122 128 131 130 135 134 138 138 137 139 145 149 150 152 151 146 146 149 151 151 150 145 142 142 141 140 138 136 133 129 125 126 128 130 128 129 131 132 134 135 135 132 132 132 121 111 105 96 88 89 89 87 88 88 87 85 81 78 76 73 73 78
37 93 352 81 204 3 174 207 224 206 279 251 267 272 168 186 173 146 100 191 292 22 344 4 85 92 280 5 38 328 26 15 95 111 119 125 129 134 138 140 141 143 148 147 143 147 146 151 151 152 149 148 149 152 152 150 147 146 146 145 142 141 138 135 131 130 130 134 132 130 131 132 134 134 137 136 135 135 133 122 114 107 93 87 87 85 84 85 85 84 82 77 75 76 74 74 81
68 123 218 173 125 211 197 261 190 213 207 214 219 232 217 191 221 143 149 351 265 76 240 210 126 103 145 45 326 2 18 35 102 101 120 126 128 130 130 132 140 131 130 148 144 142 147 151 153 154 151 150 149 152 153 151 150 150 151 148 144 143 139 136 133 133 135 137 136 135 133 134 137 136 137 139 138 139 136 124 117 107 95 90 87 83 81 82 82 77 70 71 74 76 76 78 86
189 21 143 166 200 216 212 205 223 317 216 234 249 253 231 242 177 329 198 211 184 180 227 171 44 116 86 333 188 249 121 121 116 119 126 126 124 127 124 121 129 132 136 159 145 140 145 149 155 155 152 149 149 151 151 150 152 154 152 149 146 144 140 136 136 136 140 142 141 139 137 138 140 139 139 139 142 145 141 130 122 114 100 91 85 81 80 82 80 73 67 70 75 77 78 83 89
167 179 153 213 214 208 205 209 196 239 279 236 238 225 203 178 139 231 275 245 218 237 179 121 195 152 72 136 303 22 79 129 158 131 127 119 109 105 120 128 131 137 136 158 150 143 141 147 151 155 154 149 148 150 151 149 153 155 153 150 147 145 141 138 138 141 144 146 147 145 143 142 142 143 143 143 145 147 143 137 131 121 106 90 81 79 79 82 81 74 66 68 74 78 80 88 92
166 154 176 181 216 191 135 203 216 195 219 225 202 232 172 174 198 192 202 218 228 181 253 187 166 83 126 170 247 72 102 126 251 140 133 125 119 113 110 114 122 126 139 156 153 142 144 146 150 158 155 150 148 151 149 151 156 157 156 152 149 148 143 142 142 145 149 152 151 151 148 147 146 147 147 145 146 147 143 138 137 130 108 91 81 76 77 79 79 73 67 67 72 79 83 90 95
167 184 134 224 48 181 182 212 144 203 230 201 222 249 157 189 214 196 176 205 223 193 224 144 132 126 102 78 308 160 172 115 123 142 123 118 115 111 109 110 112 128 142 155 155 144 143 146 151 156 157 151 152 154 154 159 163 160 159 156 151 149 146 147 147 149 155 159 157 156 156 153 150 150 150 149 149 146 139 135 135 130 108 96 83 78 77 78 77 71 66 68 72 79 84 93 100
197 167 127 184 215 177 201 208 193 193 241 176 225 188 233 241 180 184 185 208 236 237 133 97 156 141 227 161 250 194 167 141 135 139 104 100 104 113 115 117 121 122 143 151 150 148 146 146 154 158 154 151 149 145 152 168 167 166 163 158 155 152 149 151 153 154 160 164 164 164 164 160 157 154 155 156 152 145 140 136 138 128 112 101 89 81 80 76 75 71 66 68 72 77 83 97 104
190 121 96 192 226 195 208 209 142 205 238 188 229 183 213 255 203 189 233 185 211 241 151 161 220 164 180 177 198 160 141 143 148 134 126 115 109 105 114 124 126 146 154 157 157 152 147 150 155 157 152 153 148 145 149 165 172 173 168 162 160 158 156 157 159 159 163 171 172 172 167 164 162 158 159 159 158 149 141 138 140 133 120 112 101 91 85 79 76 73 67 66 71 77 92 102 106
85 131 229 212 233 199 193 188 157 226 169 215 205 167 189 233 243 224 214 182 165 200 202 155 179 111 160 203 95 131 143 144 142 140 139 138 136 130 127 129 134 147 163 159 167 160 154 156 156 153 154 152 146 144 149 157 177 176 172 169 166 162 163 163 164 164 167 176 178 179 174 161 152 152 158 159 159 151 146 143 142 139 129 122 117 106 92 84 81 74 70 65 72 73 90 102 109
106 202 211 231 220 204 180 184 177 197 149 203 198 192 180 222 251 238 57 180 188 188 189 175 132 41 120 24 127 136 145 151 156 154 162 156 157 140 145 152 152 174 171 166 170 163 159 165 162 157 155 156 152 150 151 159 177 175 172 173 171 170 166 168 170 166 167 173 183 186 172 161 146 141 142 164 142 160 153 149 147 147 137 129 123 122 98 86 82 78 74 68 70 77 85 91 108
194 256 186 234 201 236 160 170 206 136 219 197 191 189 184 217 158 228 171 235 185 164 245 174 170 51 69 100 124 139 149 160 163 169 163 158 180 155 151 151 162 165 173 172 175 171 172 164 166 167 164 159 155 154 156 159 178 166 169 173 176 173 170 167 162 167 153 171 182 177 176 161 141 137 148 142 145 166 159 152 154 150 142 136 128 127 108 87 74 72 67 66 72 77 81 96 98
230 146 225 233 104 224 226 176 201 195 174 197 206 229 181 232 175 233 204 213 201 183 194 262 167 178 148 145 140 151 163 173 178 173 182 174 171 158 154 156 165 178 177 174 168 171 175 170 170 173 170 165 160 159 156 166 175 166 168 171 178 166 169 158 156 154 154 158 157 159 171 159 146 139 163 160 168 166 168 156 156 155 147 140 141 105 65 68 63 59 74 74 63 68 94 105 101
277 193 217 240 210 209 279 241 222 242 155 257 205 258 165 260 223 217 209 206 226 224 206 177 180 183 172 162 161 163 170 177 188 186 193 196 180 177 165 158 171 171 168 161 167 179 176 172 170 173 172 167 163 163 167 172 172 167 163 167 167 162 156 143 151 145 153 149 154 158 170 170 160 155 151 159 133 158 171 144 142 129 109 97 113 98 88 50 45 52 36 51 54 100 111 117 114
137 220 229 234 330 211 245 233 261 218 193 191 304 273 245 257 299 222 197 213 214 204 213 194 181 182 161 167 170 173 175 181 187 190 199 196 196 194 153 149 143 140 151 167 176 172 177 174 171 170 172 169 167 170 174 177 175 172 172 168 163 160 143 148 146 150 147 149 161 160 158 164 181 166 147 129 136 153 170 141 128 123 108 116 103 111 110 91 54 50 79 98 96 109 122 124 121
250 259 231 202 222 233 260 239 225 243 201 182 189 239 217 222 256 259 205 215 230 226 211 193 187 176 178 170 161 175 182 184 190 197 190 196 195 239 185 140 149 154 171 168 163 170 172 172 172 171 172 169 168 169 171 183 177 172 170 167 167 166 155 151 158 155 151 148 161 167 158 182 194 179 153 111 136 154 176 163 138 131 128 126 139 135 121 119 120 107 95 109 114 114 121 119 117
214 241 34 272 208 212 244 249 302 319 251 220 207 5 241 242 267 261 240 252 246 275 264 248 343 354 159 157 171 176 185 188 195 195 176 172 153 147 200 154 167 173 160 162 164 169 174 179 172 171 172 170 170 171 176 184 174 169 170 176 174 171 163 162 160 163 147 147 163 175 164 174 188 187 166 121 125 137 181 182 141 131 125 129 133 126 126 127 126 67 138 108 115 117 131 127 124
208 257 249 252 247 234 252 259 270 275 259 251 206 213 236 201 206 245 242 277 282 267 280 269 149 134 154 174 181 183 185 190 192 184 169 164 166 151 152 173 152 159 168 162 165 167 175 174 175 174 171 173 173 172 178 180 173 167 174 183 178 177 168 162 163 158 155 152 164 173 166 178 196 191 172 141 114 153 191 184 159 148 141 139 125 122 146 150 149 138 222 118 121 123 130 130 129
212 226 242 253 241 238 224 257 260 239 270 220 289 280 244 213 211 238 209 227 253 265 240 220 147 152 169 186 190 186 189 191 188 179 174 165 165 161 167 170 167 167 187 164 161 171 170 169 177 180 175 175 174 173 178 180 175 173 180 188 176 178 171 157 161 168 163 158 167 180 182 181 195 197 179 143 143 165 181 184 179 170 161 143 134 151 153 146 148 138 217 148 135 134 134 137 134
186 249 233 242 248 235 235 212 249 228 209 198 230 284 294 260 154 271 232 215 225 266 294 190 157 177 181 181 185 198 204 198 189 180 148 162 177 181 175 165 168 180 167 173 166 169 172 172 176 180 177 176 176 180 180 181 173 177 183 186 180 181 162 157 165 170 168 171 173 180 190 191 195 200 180 163 159 166 176 183 199 178 171 157 145 151 146 162 149 172 199 171 147 135 137 143 140
276 246 291 259 247 229 222 210 227 236 265 212 193 260 255 273 188 231 213 236 197 178 178 170 178 186 186 188 190 189 176 138 48 18 187 182 192 188 175 170 175 169 172 177 174 166 170 179 175 177 177 177 180 185 182 184 179 181 184 184 184 178 166 171 173 176 180 180 176 184 192 197 194 200 184 169 172 175 185 189 185 190 205 151 149 150 157 163 165 205 189 152 136 130 134 142 141
274 184 314 293 345 239 225 205 212 192 255 160 166 232 277 248 233 230 183 235 266 226 174 179 187 189 192 193 191 181 176 165 173 187 208 207 195 199 187 175 164 167 184 180 172 170 175 174 176 178 176 181 185 187 187 185 180 182 186 187 182 181 179 177 184 184 181 180 178 187 198 196 198 192 194 185 176 187 188 181 192 209 201 148 143 154 159 164 178 145 146 128 124 125 132 136 133
334 52 170 329 351 277 239 196 187 194 217 162 141 251 232 243 247 109 205 203 216 195 175 187 193 193 193 191 190 187 167 168 184 191 196 207 205 192 189 184 167 165 167 165 166 178 171 171 170 172 177 183 188 188 185 189 187 185 186 183 183 180 180 183 191 182 180 180 179 188 197 199 199 194 188 188 174 182 190 194 199 216 192 147 139 145 161 172 165 151 149 136 136 135 141 145 139
248 274 138 250 2 265 248 167 190 199 162 184 158 232 239 247 249 145 221 187 160 183 197 192 193 195 197 196 193 192 184 178 187 191 192 201 207 188 176 168 166 160 159 165 178 176 170 171 170 176 179 182 186 187 191 193 187 188 186 182 182 182 181 187 188 185 186 184 180 186 191 197 198 195 193 184 185 185 197 204 205 217 160 150 142 152 161 171 161 159 152 131 127 133 141 147 142
347 8 289 323 169 279 287 280 170 190 198 171 158 241 236 247 226 207 252 218 190 190 192 188 186 191 193 192 202 203 202 202 193 184 184 196 203 189 174 174 169 169 171 174 179 171 173 172 175 174 175 181 189 187 192 193 190 189 188 180 180 182 182 188 189 192 190 183 185 186 187 194 197 198 193 183 182 193 199 209 219 193 162 148 140 150 161 167 161 153 160 141 131 138 145 144 139
351 126 289 268 208 250 338 241 202 184 147 200 190 239 98 263 251 224 227 172 228 221 204 172 183 190 189 194 204 212 204 164 181 190 183 180 193 190 187 177 174 174 170 173 169 170 176 179 178 174 177 181 185 186 190 192 189 192 190 184 183 182 187 191 191 189 193 193 186 189 188 193 198 197 193 186 188 197 202 213 228 203 158 148 143 156 174 171 155 146 146 150 137 144 151 147 145
302 38 230 224 197 294 218 304 338 267 182 208 214 224 205 237 274 274 255 194 201 186 200 188 185 186 190 194 196 201 203 194 195 194 190 181 183 187 197 184 175 170 167 162 167 172 176 179 184 184 181 178 181 184 185 187 192 192 194 191 187 189 193 191 188 185 201 200 184 192 193 195 199 197 192 188 196 203 204 212 214 204 155 140 147 156 172 162 152 150 135 125 144 142 150 149 147
224 279 5 326 327 214 236 293 263 138 266 220 208 217 229 266 279 259 186 216 202 202 193 192 191 189 192 192 195 197 195 203 212 202 183 180 178 184 190 189 180 161 164 177 171 183 184 180 181 181 171 173 177 177 173 175 181 200 205 196 199 198 196 194 182 187 204 202 197 189 190 198 200 195 191 189 196 202 205 214 212 198 154 144 142 142 144 152 142 149 138 129 127 135 140 141 141
206 176 224 183 307 303 294 254 278 258 166 243 246 190 204 232 252 259 219 206 184 226 230 205 190 192 192 194 197 191 198 211 214 189 173 179 184 180 189 185 179 173 167 192 188 173 174 171 172 173 169 167 162 164 170 175 182 196 201 203 209 208 196 188 185 194 197 205 209 188 190 196 199 193 191 188 197 199 203 207 208 177 154 142 141 139 151 166 156 141 141 135 129 126 124 130 126
84 122 150 249 261 279 275 265 235 243 156 234 212 165 199 218 218 247 212 212 199 207 193 207 223 203 195 200 197 196 199 216 103 145 166 178 182 188 187 182 179 162 163 195 176 172 171 170 166 177 173 167 170 174 181 181 187 194 205 208 208 198 190 181 186 194 191 207 212 200 190 193 196 192 188 182 196 201 204 200 185 174 151 153 153 170 176 176 170 149 136 133 137 135 137 133 129
209 225 232 290 209 258 251 244 50 293 134 303 122 156 199 216 233 241 211 156 210 203 206 190 197 207 204 199 209 208 213 110 153 120 141 151 176 187 192 198 151 137 207 172 176 180 175 172 178 179 171 171 179 183 182 182 192 198 201 205 194 191 186 187 187 184 197 203 207 207 195 189 190 192 185 186 193 194 193 182 179 170 159 160 162 154 157 154 145 137 133 102 103 144 142 145 142
199 205 203 257 262 241 283 285 304 248 113 254 160 180 239 230 234 207 185 174 218 213 195 190 188 201 203 200 202 207 147 188 139 171 157 167 168 175 197 203 186 184 185 183 184 182 180 178 179 173 176 176 182 183 180 188 190 198 204 212 205 198 201 190 186 188 190 193 205 205 196 190 188 192 186 185 186 193 188 174 179 169 163 146 130 144 150 155 160 153 154 142 139 129 118 148 157
187 117 118 211 239 17 309 299 352 356 90 282 183 196 279 304 288 238 237 182 232 221 225 208 185 190 200 200 196 190 191 149 170 168 175 165 166 175 190 203 193 181 198 190 183 180 178 182 180 179 181 183 181 183 188 187 179 183 206 246 235 236 205 185 186 186 193 192 206 205 196 189 189 192 187 186 191 192 181 177 164 166 164 160 153 149 159 160 158 157 144 145 142 142 150 163 174
337 142 158 264 308 270 166 265 338 311 7 75 67 48 333 340 90 251 340 280 316 308 251 277 293 226 199 203 202 195 194 175 171 168 166 173 172 183 191 189 193 191 188 191 185 185 187 188 186 184 184 184 184 180 178 173 175 182 182 196 210 237 208 193 187 203 199 193 200 204 203 185 188 192 188 188 191 191 184 172 162 171 164 165 154 151 161 171 176 172 161 152 164 151 158 160 176
333 236 198 270 260 302 300 329 31 24 343 350 101 13 292 294 298 251 297 348 225 272 190 239 228 241 238 214 212 203 200 182 175 179 174 171 177 177 183 183 196 202 202 197 190 190 187 188 185 185 181 179 177 175 172 168 178 186 179 184 196 206 212 196 202 199 194 197 203 206 200 186 187 191 189 189 195 187 182 174 170 168 172 163 161 160 164 164 170 168 176 167 165 165 154 162 175
71 325 182 245 297 223 273 320 63 26 137 296 41 151 267 322 257 230 312 338 255 305 298 249 215 234 228 219 211 190 194 182 183 167 166 166 178 178 186 194 196 200 207 196 196 195 192 188 187 183 182 181 179 178 175 171 179 191 198 202 203 203 205 211 208 183 176 198 190 201 203 190 188 188 191 188 191 191 183 173 173 178 176 173 164 153 158 171 177 182 173 173 171 151 147 161 175
333 267 134 336 20 275 246 89 104 176 259 300 36 88 143 326 289 67 294 187 218 289 285 275 238 221 225 231 214 201 199 189 183 182 183 179 179 182 185 192 196 204 195 189 201 195 189 184 182 189 188 184 183 178 178 181 183 191 203 214 215 216 218 216 190 184 169 168 189 202 198 194 193 193 189 188 189 188 181 176 174 175 174 178 166 167 170 176 177 182 181 178 158 165 164 164 174
233 267 283 339 255 273 85 87 98 205 55 295 337 346 80 255 267 333 147 93 236 239 245 252 272 257 276 286 276 244 212 198 191 190 196 189 186 186 183 187 201 199 189 192 197 195 189 182 177 178 186 185 183 178 179 186 193 196 195 208 216 222 221 195 158 167 180 169 189 203 197 196 196 197 193 187 187 186 183 179 175 176 175 176 176 172 176 170 176 173 173 163 172 174 176 165 162
294 226 74 66 56 59 69 83 71 348 64 284 307 353 177 291 277 341 344 90 197 255 261 290 288 287 258 242 260 272 291 284 232 202 198 197 194 195 190 189 190 196 195 192 195 192 191 180 176 176 183 184 180 182 186 190 196 198 198 205 213 224 224 177 166 174 182 176 192 200 199 197 196 195 196 190 185 187 184 179 178 180 180 173 174 179 176 173 176 180 178 179 178 176 177 169 179
290 54 87 1 33 9 9 63 81 59 28 264 241 334 134 298 269 234 91 163 169 157 347 306 307 307 304 270 226 235 249 260 252 241 217 210 208 206 193 191 198 202 200 198 192 189 185 184 182 183 187 182 176 179 183 191 194 196 203 208 212 217 208 183 179 182 183 183 194 199 198 197 191 198 194 191 188 184 184 181 181 185 180 174 172 175 182 177 177 180 181 179 179 179 179 183 181
81 38 69 30 331 5 28 344 32 94 279 258 291 90 69 161 296 310 243 286 280 101 101 310 312 311 306 313 322 311 266 224 218 231 265 257 177 157 172 206 201 198 196 199 203 194 188 187 184 186 184 182 180 177 179 188 193 201 207 209 210 209 198 195 197 190 186 197 195 194 191 186 196 198 198 193 187 184 182 184 183 181 180 176 178 178 181 180 176 176 177 179 185 191 185 183 183
49 56 32 81 280 34 323 3 325 188 172 252 17 10 36 228 221 189 236 268 279 255 309 349 305 308 318 323 324 315 298 307 271 232 194 186 198 190 190 200 197 195 199 199 198 194 194 192 188 186 187 184 186 181 182 185 193 203 204 204 207 200 196 198 202 202 187 191 191 188 184 199 192 195 200 197 192 182 183 183 182 182 184 186 181 176 184 180 172 176 179 182 183 187 190 187 188
30 66 100 76 70 39 242 276 242 311 290 287 350 304 268 261 296 245 222 215 240 238 240 270 291 288 309 319 326 331 325 325 314 306 273 205 197 199 201 196 198 203 208 205 198 192 191 194 196 194 193 186 183 183 185 185 193 199 203 208 208 201 201 199 203 200 195 192 186 188 189 196 200 202 193 203 188 179 187 193 190 190 189 185 181 182 179 183 176 175 179 182 190 196 189 194 200
123 167 124 180 143 155 212 205 174 213 193 287 291 51 230 131 228 158 204 214 253 281 269 297 283 290 300 296 307 320 327 323 338 313 279 276 253 210 202 200 199 202 208 209 205 201 196 197 197 202 199 192 186 186 184 188 193 193 198 205 206 203 203 205 207 201 191 190 190 190 193 192 195 201 204 196 178 180 188 192 197 193 189 187 184 184 181 179 182 176 179 186 192 189 194 195 203
287 163 96 65 281 147 93 208 139 220 33 357 267 208 183 181 267 256 272 13 353 285 321 16 346 334 345 346 331 319 312 311 315 321 311 282 264 284 258 222 206 203 208 207 209 206 202 206 206 209 203 192 190 189 189 189 190 187 192 196 202 202 204 207 209 202 196 192 190 192 194 195 198 195 194 185 190 181 185 193 197 198 189 189 190 190 184 178 178 177 180 179 192 183 191 199 206
270 62 82 246 174 107 81 73 39 68 51 252 158 318 298 298 316 321 20 72 64 25 20 354 322 306 343 324 311 304 298 300 309 313 313 314 310 254 245 249 231 215 207 205 205 204 205 204 206 213 213 200 195 194 192 189 186 185 190 193 194 198 199 202 204 204 201 191 193 197 194 193 186 189 192 189 186 186 187 190 195 196 191 189 192 195 191 187 178 181 181 181 189 183 188 203 202
64 76 240 229 99 113 123 196 350 64 131 258 20 239 301 18 275 323 354 11 330 129 174 309 304 325 300 283 302 305 302 300 300 298 293 292 298 297 260 233 236 237 222 212 209 202 202 202 204 208 205 201 201 197 194 189 183 185 189 193 195 198 201 206 205 205 200 194 201 199 194 183 193 193 188 188 185 184 187 191 193 195 193 190 193 193 194 192 183 186 185 186 189 179 192 201 203
136 191 218 96 302 12 327 85 342 288 301 290 321 273 262 188 254 327 314 327 318 326 336 124 254 296 280 289 300 308 316 326 329 332 335 336 336 330 319 299 262 225 229 234 222 207 201 202 204 203 203 202 197 195 200 199 191 186 187 191 195 197 201 203 205 204 196 199 201 198 200 204 197 185 183 184 187 187 186 191 192 193 192 194 192 195 194 195 188 189 187 187 182 179 190 202 205
22 51 23 20 106 154 60 197 173 111 262 39 295 24 251 204 219 215 271 288 300 304 318 307 270 266 305 304 303 310 320 320 322 325 326 324 323 324 320 314 310 299 268 226 225 213 209 204 199 202 203 193 187 191 194 205 208 199 189 185 191 195 196 198 200 198 200 200 204 205 204 203 200 193 194 186 188 190 187 190 193 191 192 193 193 197 194 196 191 196 186 186 183 181 192 202 205
341 21 349 356 5 224 106 76 68 198 179 170 217 315 272 260 216 209 265 275 285 312 315 324 325 90 185 266 286 298 304 310 312 316 317 317 317 320 322 318 307 302 293 274 219 215 215 207 203 199 194 191 194 194 191 197 190 201 202 192 187 187 192 193 194 197 202 205 207 202 199 201 186 202 194 193 198 194 187 190 189 193 192 193 194 197 197 196 195 197 193 187 179 184 192 201 194
132 133 8 224 3 359 17 275 10 46 51 244 109 271 270 265 212 213 238 346 1 333 323 314 306 296 248 249 258 257 273 285 290 296 304 308 311 312 312 317 314 308 297 281 257 226 221 215 211 204 197 196 197 196 196 192 190 191 193 201 197 185 181 182 190 198 206 214 215 203 203 189 195 200 194 200 199 193 185 187 192 195 195 196 197 198 194 193 197 197 197 186 181 183 190 192 182